Location: Barcelona
(41.3830°N, 2.1830°E)
Time: 09:00:00
(UTC+01:00)

ISS - Pass Details

Date: 14 November 2017
Orbit: 402 x 407 km, 51.6° (Epoch: 21 November)

Event Time Altitude Azimuth Distance (km) Brightness Sun altitude
Exits shadow 05:45:16 24° 18° (NNE) 883 -2.0 -21.3°
Maximum altitude 05:45:22 24° 22° (NNE) 882 -2.0 -21.3°
Drops below altitude 10° 05:48:06 10° 79° (ENE) 1,453 0.0 -20.7°
Sets 05:50:25 0° 93° (E) 2,310 1.6 -20.3°
